GW0367 Weather Reports


time (UTC)temp
F
wind
direction
speed
knots
gust
knots
rain 1hr
in
rain 24hr
in
rain mn
in
humidity
%
barometer
mb
20260503055019 51 250 1.7 5.2 0.00 0.06 0.06 79 1016.3
20260503054552 51 255 0.9 2.6 0.00 0.06 0.06 80 1016.3
20260503054019 51 244 0.0 2.6 0.00 0.06 0.06 80 1016.6
20260503053517 51 244 0.9 2.6 0.00 0.06 0.06 80 1016.6
20260503053037 51 244 0.0 2.6 0.00 0.06 0.06 80 1016.6
20260503052517 52 244 0.9 2.6 0.00 0.06 0.06 80 1016.7
20260503052021 52 76 0.9 2.6 0.00 0.06 0.06 80 1016.8
20260503051532 52 71 0.9 2.6 0.00 0.06 0.06 79 1016.8
20260503051017 52 71 0.0 1.7 0.00 0.06 0.06 78 1016.8
20260503050517 52 71 0.0 1.7 0.00 0.06 0.06 78 1016.8
20260503050039 53 0 0.0 3.5 0.00 0.06 0.06 78 1016.8
20260503045517 53 71 0.0 3.5 0.00 0.06 0.06 78 1016.7
20260503045020 53 78 0.9 3.5 0.00 0.06 0.06 76 1016.8
20260503044534 52 298 0.9 3.5 0.00 0.06 0.06 76 1016.8
20260503044018 52 296 1.7 3.5 0.00 0.06 0.06 76 1016.8
20260503043515 52 282 0.9 3.5 0.00 0.06 0.06 78 1016.8
20260503043033 53 286 0.9 3.5 0.00 0.06 0.06 77 1016.7
20260503042517 53 235 1.7 3.5 0.00 0.06 0.06 77 1016.9
20260503042017 53 202 1.7 2.6 0.00 0.06 0.06 75 1016.9
20260503041538 53 0 0.0 1.7 0.00 0.06 0.06 74 1016.6
20260503041016 53 304 0.0 7.0 0.00 0.06 0.06 73 1016.5
20260503040515 53 0 1.7 7.0 0.00 0.06 0.06 73 1016.6
20260503040032 53 296 3.5 7.0 0.00 0.06 0.06 73 1016.3
20260503035517 53 306 1.7 3.5 0.00 0.06 0.06 74 1016.4
20260503035017 53 309 1.7 3.5 0.00 0.06 0.06 73 1016.3
20260503034535 53 307 0.9 3.5 0.00 0.06 0.06 74 1016.5
20260503034016 54 0 0.0 0.0 0.00 0.06 0.06 73 1016.5
20260503033516 54 0 0.0 1.7 0.00 0.06 0.06 72 1016.6
20260503033037 54 0 0.0 1.7 0.00 0.06 0.06 71 1016.7
20260503032521 54 0 0.0 1.7 0.00 0.06 0.06 71 1016.6
20260503032017 55 0 0.0 4.3 0.00 0.06 0.06 69 1016.6
20260503031533 55 74 0.9 4.3 0.00 0.06 0.06 69 1016.7
20260503031018 54 61 1.7 5.2 0.00 0.06 0.06 69 1016.5
20260503030518 54 78 1.7 5.2 0.00 0.06 0.06 71 1016.5
20260503030041 55 0 0.0 0.9 0.00 0.06 0.06 71 1016.6
20260503025517 55 0 0.0 2.6 0.00 0.06 0.06 68 1016.2
20260503025017 55 0 0.0 3.5 0.00 0.06 0.06 67 1016.0
20260503024535 55 51 0.9 7.0 0.00 0.06 0.06 67 1015.9
20260503024019 55 0 1.7 7.8 0.00 0.06 0.06 66 1015.8
20260503023517 55 352 3.5 10.4 0.00 0.06 0.06 66 1015.6
20260503023035 55 346 3.5 10.4 0.00 0.06 0.06 67 1015.5
20260503022516 55 340 3.5 7.8 0.00 0.06 0.06 68 1015.5
20260503022019 55 333 2.6 7.0 0.00 0.06 0.06 69 1015.4
20260503021534 55 321 2.6 8.7 0.00 0.06 0.06 69 1015.4
20260503021019 55 334 3.5 8.7 0.00 0.06 0.06 69 1015.3
20260503020519 55 348 3.5 8.7 0.00 0.06 0.06 70 1015.3
20260503020036 55 352 5.2 8.7 0.00 0.06 0.06 69 1015.2
20260503015522 55 344 4.3 8.7 0.00 0.06 0.06 69 1015.3
20260503015022 55 323 4.3 8.7 0.00 0.06 0.06 69 1015.4
20260503014547 56 344 4.3 8.7 0.00 0.06 0.06 70 1015.3
20260503014019 56 329 3.5 7.0 0.00 0.06 0.06 70 1015.3
20260503013519 56 326 2.6 7.8 0.00 0.06 0.06 71 1015.2
20260503013038 56 323 3.5 7.8 0.00 0.06 0.06 71 1015.2
20260503012519 56 338 3.5 7.8 0.01 0.06 0.06 73 1015.3
20260503012019 56 314 3.5 7.8 0.06 0.06 0.06 74 1015.2
20260503011535 56 315 2.6 5.2 0.06 0.06 0.06 75 1015.2
20260503011019 56 308 1.7 3.5 0.06 0.06 0.06 76 1015.3
20260503010519 57 340 1.7 3.5 0.06 0.06 0.06 74 1015.4
20260503010036 57 15 0.9 1.7 0.06 0.06 0.06 76 1015.4
20260503005520 56 0 0.0 4.3 0.06 0.06 0.06 74 1015.4
20260503005020 56 0 0.9 7.0 0.06 0.06 0.06 71 1015.2
20260503004531 56 51 2.6 7.0 0.06 0.06 0.06 70 1015.2
20260503004022 56 98 0.0 2.6 0.06 0.06 0.06 75 1015.3
20260503003519 56 0 0.0 14.8 0.06 0.06 0.06 69 1015.3
20260503003039 57 0 3.5 14.8 0.06 0.06 0.06 64 1015.3
20260503002519 60 208 7.8 14.8 0.04 0.04 0.04 54 1015.3
20260503002019 64 175 5.2 14.8 0.00 0.00 0.00 40 1015.1
20260503001548 66 216 4.3 14.8 0.00 0.00 0.00 36 1014.5
20260503001020 66 140 1.7 5.2 0.00 0.00 0.00 32 1014.2
20260503000518 66 127 0.9 5.2 0.00 0.00 0.00 34 1014.2
20260503000035 66 94 1.7 5.2 0.00 0.00 0.00 33 1014.1
20260502235518 66 0 0.9 7.0 0.00 0.00 0.00 34 1013.9
20260502235019 66 144 0.9 8.7 0.00 0.00 0.00 35 1013.9
20260502234539 66 92 2.6 8.7 0.00 0.00 0.00 34 1014.0
20260502234024 66 89 2.6 10.4 0.00 0.00 0.00 33 1014.1
20260502233520 66 167 2.6 17.4 0.00 0.00 0.00 33 1014.0
20260502233045 67 159 4.3 17.4 0.00 0.00 0.00 32 1014.0
20260502232522 68 119 7.0 17.4 0.00 0.00 0.00 30 1013.9
20260502232019 68 140 2.6 6.1 0.00 0.00 0.00 31 1013.8
20260502231536 69 151 0.9 6.1 0.00 0.00 0.00 30 1013.8
20260502231020 69 165 2.6 6.1 0.00 0.00 0.00 30 1013.9
20260502230520 69 174 0.9 6.1 0.00 0.00 0.00 30 1013.9
20260502230036 70 175 2.6 6.1 0.00 0.00 0.00 29 1014.0
20260502225518 70 199 2.6 6.1 0.00 0.00 0.00 31 1014.0
20260502225022 69 0 0.9 4.3 0.00 0.00 0.00 29 1014.0
20260502224541 69 158 0.9 6.1 0.00 0.00 0.00 30 1014.1
20260502224019 69 227 1.7 7.0 0.00 0.00 0.00 31 1014.2
20260502223519 69 202 4.3 8.7 0.00 0.00 0.00 30 1014.3
20260502223031 69 224 3.5 9.6 0.00 0.00 0.00 30 1014.4
20260502222519 69 269 4.3 9.6 0.00 0.00 0.00 30 1014.4
20260502222019 69 219 5.2 9.6 0.00 0.00 0.00 30 1014.4
20260502221540 69 0 0.9 5.2 0.00 0.00 0.00 32 1014.4
20260502221020 68 173 1.7 5.2 0.00 0.00 0.00 30 1014.5
20260502220519 68 171 0.9 5.2 0.00 0.00 0.00 32 1014.6
20260502220035 68 169 2.6 5.2 0.00 0.00 0.00 31 1014.8
20260502215522 68 193 2.6 7.8 0.00 0.00 0.00 31 1015.0
20260502215019 68 174 2.6 7.8 0.00 0.00 0.00 32 1015.0
20260502214535 67 163 3.5 7.0 0.00 0.00 0.00 32 1015.0
20260502214020 67 225 3.5 7.0 0.00 0.00 0.00 31 1015.0
20260502213519 66 217 3.5 12.2 0.00 0.00 0.00 30 1015.1
20260502213031 65 207 5.2 26.9 0.00 0.00 0.00 30 1015.3
20260502212523 65 248 11.3 26.9 0.00 0.00 0.00 29 1015.4
20260502212019 67 246 8.7 19.1 0.00 0.00 0.00 29 1015.6
20260502211535 67 221 9.6 19.1 0.00 0.00 0.00 28 1015.5
20260502211022 67 215 3.5 22.6 0.00 0.00 0.00 31 1015.5
20260502210518 66 202 2.6 22.6 0.00 0.00 0.00 30 1015.4
20260502210035 68 112 8.7 21.7 0.00 0.00 0.00 29 1015.7
20260502205522 68 168 3.5 7.0 0.00 0.00 0.00 31 1015.6
20260502205019 68 228 2.6 7.0 0.00 0.00 0.00 31 1015.5
20260502204536 68 244 2.6 7.0 0.00 0.00 0.00 30 1015.5
20260502204019 68 194 2.6 7.0 0.00 0.00 0.00 30 1015.5
20260502203519 68 200 0.0 8.7 0.00 0.00 0.00 30 1015.5
20260502203034 68 184 3.5 8.7 0.00 0.00 0.00 29 1015.5
20260502202519 68 132 3.5 7.8 0.00 0.00 0.00 30 1015.5
20260502202019 68 217 2.6 7.8 0.00 0.00 0.00 30 1015.6
20260502201549 68 161 2.6 9.6 0.00 0.00 0.00 29 1015.7
20260502201019 68 171 2.6 10.4 0.00 0.00 0.00 29 1015.7
20260502200520 68 178 6.1 10.4 0.00 0.00 0.00 29 1015.7
20260502200032 68 145 3.5 10.4 0.00 0.00 0.00 29 1015.7
20260502195517 68 224 6.1 13.0 0.00 0.00 0.00 28 1015.7
20260502195017 69 200 6.1 13.0 0.00 0.00 0.00 27 1015.7
20260502194535 69 182 4.3 10.4 0.00 0.00 0.00 30 1015.8
20260502194018 68 222 3.5 12.2 0.00 0.00 0.00 28 1015.7
20260502193518 69 222 7.0 12.2 0.00 0.00 0.00 28 1015.8
20260502193036 69 223 3.5 9.6 0.00 0.00 0.00 28 1015.8
20260502192517 69 184 3.5 10.4 0.00 0.00 0.00 28 1015.7
20260502192018 69 142 2.6 10.4 0.00 0.00 0.00 28 1015.8
20260502191531 69 240 6.1 10.4 0.00 0.00 0.00 29 1015.8
20260502191017 70 238 4.3 11.3 0.00 0.00 0.00 28 1015.8
20260502190517 70 198 3.5 11.3 0.00 0.00 0.00 28 1015.8
20260502190037 70 203 5.2 11.3 0.00 0.00 0.00 29 1015.8
20260502185516 70 162 3.5 11.3 0.00 0.00 0.00 28 1015.9
20260502185017 70 169 3.5 13.0 0.00 0.00 0.00 29 1015.9
20260502184544 70 128 3.5 13.0 0.00 0.00 0.00 28 1015.9
20260502184017 70 189 4.3 8.7 0.00 0.00 0.00 28 1016.0
20260502183519 69 234 2.6 8.7 0.00 0.00 0.00 29 1016.0
20260502183052 70 115 3.5 8.7 0.00 0.00 0.00 30 1016.2
20260502182517 68 153 1.7 7.8 0.00 0.00 0.00 31 1016.2
20260502182017 68 0 0.9 5.2 0.00 0.00 0.00 32 1016.3
20260502181541 67 85 0.9 5.2 0.00 0.00 0.00 34 1016.3
20260502181015 67 63 0.9 6.1 0.00 0.00 0.00 36 1016.3
20260502180515 65 46 1.7 6.1 0.00 0.00 0.00 38 1016.5
20260502170517 61 0 0.0 2.6 0.00 0.00 0.00 39 1016.7
20260502164019 61 34 0.0 3.5 0.00 0.00 0.00 38 1016.6
20260502163519 60 59 0.9 4.3 0.00 0.00 0.00 39 1016.7
20260502163040 59 351 0.9 5.2 0.00 0.00 0.00 40 1016.7
20260502162519 59 342 2.6 5.2 0.00 0.00 0.00 40 1016.6
20260502162021 60 351 2.6 5.2 0.00 0.00 0.00 40 1016.6
20260502161535 60 14 0.9 3.5 0.00 0.00 0.00 43 1016.6
20260502161019 60 0 0.9 3.5 0.00 0.00 0.00 43 1016.5
20260502160522 60 17 0.9 2.6 0.00 0.00 0.00 42 1016.5
20260502152018 55 0 0.0 2.6 0.00 0.00 0.00 43 1016.7
20260502151537 54 0 0.0 2.6 0.00 0.00 0.00 44 1016.7
20260502151019 54 136 1.7 2.6 0.00 0.00 0.00 44 1016.7
20260502150520 54 0 0.0 1.7 0.00 0.00 0.00 47 1016.7
20260502130518 51 0 0.0 3.5 0.00 0.00 0.00 42 1015.9
20260502123517 52 239 1.7 7.0 0.00 0.00 0.00 40 1015.8
20260502123036 52 264 2.6 7.8 0.00 0.00 0.00 39 1015.8
20260502122518 52 233 2.6 7.8 0.00 0.00 0.00 38 1015.8
20260502122018 51 211 3.5 7.8 0.00 0.00 0.00 38 1015.8
20260502121545 52 258 1.7 7.0 0.00 0.00 0.00 39 1015.8
20260502121017 52 250 2.6 7.0 0.00 0.00 0.00 38 1015.8
20260502120518 52 244 1.7 6.1 0.00 0.00 0.00 38 1015.8
20260502115518 53 265 2.6 7.8 0.00 0.00 0.00 36 1015.7
20260502115017 53 257 3.5 7.8 0.00 0.00 0.00 36 1015.8
20260502114541 53 242 5.2 7.8 0.00 0.00 0.00 35 1015.8
20260502114018 53 254 2.6 7.0 0.00 0.00 0.00 35 1015.8
20260502113518 53 257 3.5 7.0 0.00 0.00 0.00 35 1015.8
20260502113036 53 273 1.7 7.0 0.00 0.00 0.00 34 1015.9
20260502112517 53 245 1.7 7.0 0.00 0.00 0.00 34 1015.9
20260502112018 52 248 2.6 5.2 0.00 0.00 0.00 35 1015.8
20260502111534 51 190 0.0 1.7 0.00 0.00 0.00 36 1015.8
20260502111019 51 0 0.0 2.6 0.00 0.00 0.00 37 1015.8
20260502110519 51 155 0.0 2.6 0.00 0.00 0.00 38 1015.9
20260502110036 51 0 0.0 3.5 0.00 0.00 0.00 38 1015.8
20260502105519 51 271 0.9 3.5 0.00 0.00 0.00 38 1015.8
20260502105018 51 253 1.7 3.5 0.00 0.00 0.00 37 1015.8
20260502104535 51 277 0.0 2.6 0.00 0.00 0.00 36 1015.8
20260502104029 51 292 0.9 3.5 0.00 0.00 0.00 36 1015.8
20260502103517 51 294 0.9 3.5 0.00 0.00 0.00 36 1015.8
20260502103036 51 0 1.7 3.5 0.00 0.00 0.00 36 1015.8
20260502102517 51 292 0.9 3.5 0.00 0.00 0.00 35 1015.8
20260502102015 51 292 1.7 3.5 0.00 0.00 0.00 35 1015.8
20260502101542 51 280 0.9 2.6 0.00 0.00 0.00 34 1015.8
20260502101017 52 11 0.0 1.7 0.00 0.00 0.00 33 1015.7
20260502100520 53 0 0.0 3.5 0.00 0.00 0.00 32 1015.7
20260502091532 53 254 2.6 7.0 0.00 0.00 0.00 29 1016.1
20260502091018 53 245 2.6 5.2 0.00 0.00 0.00 29 1016.2
20260502090518 54 224 0.9 5.2 0.00 0.00 0.00 28 1016.2
20260502071019 57 250 2.6 7.0 0.00 0.00 0.00 27 1017.0
20260502070521 57 273 1.7 7.0 0.00 0.00 0.00 27 1017.0